Time,TemperatureF,DewpointF,PressureIn,WindDirection,WindDirectionDegrees,WindSpeedMPH,WindSpeedGustMPH,Humidity,HourlyPrecipIn,Conditions,Clouds,dailyrainin,SoftwareType,DateUTC
2013-03-02 00:03:00,12.7,-4.1,29.96,NNE,16,4.0,6.3,46,0.00,,CLR,0.00,VWS V14.01,2013-03-02 06:03:00,
2013-03-02 00:08:00,13.3,-3.6,29.96,NNE,19,4.9,7.6,46,0.00,,CLR,0.00,VWS V14.01,2013-03-02 06:08:00,
2013-03-02 00:13:00,13.6,-3.3,29.96,North,7,5.4,5.8,46,0.00,,CLR,0.00,VWS V14.01,2013-03-02 06:13:00,
2013-03-02 00:18:00,13.8,-3.1,29.96,NNE,12,5.4,6.3,46,0.00,,CLR,0.00,VWS V14.01,2013-03-02 06:18:00,
2013-03-02 00:23:00,13.8,-3.1,29.96,NNE,18,6.3,7.6,46,0.00,,CLR,0.00,VWS V14.01,2013-03-02 06:23:00,
2013-03-02 00:28:00,13.6,-3.3,29.96,North,11,6.3,8.1,46,0.00,,CLR,0.00,VWS V14.01,2013-03-02 06:28:00,
2013-03-02 00:34:00,13.5,-3.5,29.96,North,6,8.1,8.3,46,0.00,,CLR,0.00,VWS V14.01,2013-03-02 06:34:00,
2013-03-02 00:39:00,13.5,-3.5,29.96,North,3,6.7,6.7,46,0.00,,CLR,0.00,VWS V14.01,2013-03-02 06:39:00,
2013-03-02 00:44:00,13.5,-3.5,29.96,North,8,5.8,6.3,46,0.00,,CLR,0.00,VWS V14.01,2013-03-02 06:44:00,
2013-03-02 00:49:00,13.5,-3.5,29.96,North,2,5.4,5.4,46,0.00,,CLR,0.00,VWS V14.01,2013-03-02 06:49:00,
2013-03-02 00:54:00,13.5,-3.5,29.96,NNE,15,6.3,8.1,46,0.00,,CLR,0.00,VWS V14.01,2013-03-02 06:54:00,
2013-03-02 00:59:00,13.3,-3.6,29.96,North,357,4.9,5.8,46,0.00,,CLR,0.00,VWS V14.01,2013-03-02 06:59:00,
2013-03-02 01:04:00,13.1,-3.8,29.96,NNE,15,5.4,5.8,46,0.00,,BKN027,0.00,VWS V14.01,2013-03-02 07:04:00,
2013-03-02 01:10:00,12.9,-4.0,29.96,North,3,5.8,5.8,46,0.00,,BKN027,0.00,VWS V14.01,2013-03-02 07:10:00,
2013-03-02 01:15:00,12.9,-4.0,29.96,NNE,12,4.9,5.4,46,0.00,,BKN027,0.00,VWS V14.01,2013-03-02 07:15:00,
2013-03-02 01:21:00,12.7,-4.1,29.96,North,2,5.4,5.8,46,0.00,,BKN027,0.00,VWS V14.01,2013-03-02 07:21:00,
2013-03-02 01:26:00,12.6,-4.3,29.96,NNE,13,5.4,5.4,46,0.00,,BKN027,0.00,VWS V14.01,2013-03-02 07:26:00,
2013-03-02 01:32:00,12.6,-4.3,29.96,North,10,4.9,5.4,46,0.00,,BKN027,0.00,VWS V14.01,2013-03-02 07:32:00,
2013-03-02 01:38:00,12.4,-4.4,29.96,NNE,19,4.0,5.8,46,0.00,,BKN027,0.00,VWS V14.01,2013-03-02 07:38:00,
2013-03-02 01:43:00,12.2,-4.6,29.93,North,8,2.2,3.1,46,0.00,,BKN027,0.00,VWS V14.01,2013-03-02 07:43:00,
2013-03-02 01:49:00,12.2,-4.6,29.93,NNE,14,4.0,4.0,46,0.00,,BKN027,0.00,VWS V14.01,2013-03-02 07:49:00,
2013-03-02 01:54:00,12.0,-4.8,29.93,NNE,14,5.4,5.8,46,0.00,,BKN027,0.00,VWS V14.01,2013-03-02 07:54:00,
2013-03-02 01:59:00,12.0,-4.8,29.93,North,5,5.8,5.8,46,0.00,,BKN027,0.00,VWS V14.01,2013-03-02 07:59:00,
2013-03-02 02:04:00,11.8,-4.9,29.93,North,2,5.8,7.6,46,0.00,,OVC025,0.00,VWS V14.01,2013-03-02 08:04:00,
2013-03-02 02:10:00,11.8,-4.9,29.93,NNE,14,6.7,6.7,46,0.00,,OVC025,0.00,VWS V14.01,2013-03-02 08:10:00,
2013-03-02 02:15:00,12.0,-4.8,29.93,North,5,5.8,5.8,46,0.00,,OVC025,0.00,VWS V14.01,2013-03-02 08:15:00,
2013-03-02 02:20:00,11.8,-4.9,29.93,NNE,12,5.4,5.8,46,0.00,,OVC025,0.00,VWS V14.01,2013-03-02 08:20:00,
2013-03-02 02:25:00,11.8,-4.9,29.93,North,2,4.9,5.8,46,0.00,,OVC025,0.00,VWS V14.01,2013-03-02 08:25:00,
2013-03-02 02:30:00,11.8,-4.9,29.93,North,2,6.3,7.6,46,0.00,,OVC025,0.00,VWS V14.01,2013-03-02 08:30:00,
2013-03-02 02:35:00,11.7,-5.1,29.93,North,357,3.1,5.4,46,0.00,,OVC025,0.00,VWS V14.01,2013-03-02 08:35:00,
2013-03-02 02:41:00,11.3,-5.4,29.93,North,357,3.1,5.4,46,0.00,,OVC025,0.00,VWS V14.01,2013-03-02 08:41:00,
2013-03-02 02:46:00,11.1,-5.6,29.93,North,353,3.1,3.6,46,0.00,,OVC025,0.00,VWS V14.01,2013-03-02 08:46:00,
2013-03-02 02:52:00,10.9,-5.8,29.93,North,353,3.6,4.0,46,0.00,,OVC025,0.00,VWS V14.01,2013-03-02 08:52:00,
2013-03-02 02:57:00,10.8,-5.9,29.93,North,0,3.6,4.0,46,0.00,,OVC025,0.00,VWS V14.01,2013-03-02 08:57:00,
2013-03-02 03:02:00,10.6,-6.1,29.93,North,350,2.7,5.4,46,0.00,,OVC025,0.00,VWS V14.01,2013-03-02 09:02:00,
2013-03-02 03:07:00,10.4,-6.3,29.93,NNW,344,4.9,4.9,46,0.00,,OVC025,0.00,VWS V14.01,2013-03-02 09:07:00,
2013-03-02 03:13:00,10.2,-6.4,29.93,NNW,346,3.6,4.0,46,0.00,,OVC025,0.00,VWS V14.01,2013-03-02 09:13:00,
2013-03-02 03:18:00,10.2,-6.4,29.93,North,353,4.9,5.4,46,0.00,,OVC025,0.00,VWS V14.01,2013-03-02 09:18:00,
2013-03-02 03:24:00,10.2,-6.4,29.93,North,357,3.1,5.4,46,0.00,,OVC025,0.00,VWS V14.01,2013-03-02 09:24:00,
2013-03-02 03:30:00,10.4,-6.3,29.93,North,1,4.0,5.4,46,0.00,,OVC025,0.00,VWS V14.01,2013-03-02 09:30:00,
2013-03-02 03:35:00,10.4,-6.3,29.93,North,5,2.7,4.0,46,0.00,,OVC025,0.00,VWS V14.01,2013-03-02 09:35:00,
2013-03-02 03:41:00,10.4,-6.3,29.93,North,0,4.9,4.9,46,0.00,,OVC025,0.00,VWS V14.01,2013-03-02 09:41:00,
2013-03-02 03:46:00,10.4,-6.3,29.93,NNW,342,4.0,4.0,46,0.00,,OVC025,0.00,VWS V14.01,2013-03-02 09:46:00,
2013-03-02 03:52:00,10.2,-6.4,29.93,North,350,4.0,6.3,46,0.00,,OVC025,0.00,VWS V14.01,2013-03-02 09:52:00,
2013-03-02 03:58:00,10.0,-6.6,29.93,North,357,3.6,4.0,46,0.00,,OVC025,0.00,VWS V14.01,2013-03-02 09:58:00,
2013-03-02 04:03:00,9.9,-6.8,29.93,North,350,5.4,5.8,46,0.00,,FEW027,0.00,VWS V14.01,2013-03-02 10:03:00,
2013-03-02 04:08:00,9.7,-6.9,29.93,NNW,338,3.1,6.3,46,0.00,,FEW027,0.00,VWS V14.01,2013-03-02 10:08:00,
2013-03-02 04:13:00,9.7,-6.9,29.93,North,353,5.4,5.8,46,0.00,,FEW027,0.00,VWS V14.01,2013-03-02 10:13:00,
2013-03-02 04:18:00,9.7,-6.9,29.93,North,353,7.6,8.1,46,0.00,,FEW027,0.00,VWS V14.01,2013-03-02 10:18:00,
2013-03-02 04:23:00,9.9,-6.8,29.93,NNW,345,5.8,7.6,46,0.00,,FEW027,0.00,VWS V14.01,2013-03-02 10:23:00,
2013-03-02 04:29:00,9.7,-6.9,29.93,North,353,5.8,6.3,46,0.00,,FEW027,0.00,VWS V14.01,2013-03-02 10:29:00,
2013-03-02 04:34:00,9.7,-6.9,29.93,NNE,14,4.9,5.4,46,0.00,,FEW027,0.00,VWS V14.01,2013-03-02 10:34:00,
2013-03-02 04:39:00,9.5,-7.1,29.93,North,0,4.9,5.8,46,0.00,,FEW027,0.00,VWS V14.01,2013-03-02 10:39:00,
2013-03-02 04:45:00,9.5,-7.1,29.93,North,1,4.0,5.4,46,0.00,,FEW027,0.00,VWS V14.01,2013-03-02 10:45:00,
2013-03-02 04:51:00,9.5,-7.1,29.93,North,357,2.7,4.0,46,0.00,,FEW027,0.00,VWS V14.01,2013-03-02 10:51:00,
2013-03-02 04:57:00,9.3,-7.3,29.93,North,353,3.6,5.8,46,0.00,,FEW027,0.00,VWS V14.01,2013-03-02 10:57:00,
2013-03-02 05:02:00,9.3,-7.3,29.93,NNW,345,6.3,6.7,46,0.00,,CLR,0.00,VWS V14.01,2013-03-02 11:02:00,
2013-03-02 05:07:00,9.3,-7.3,29.93,North,2,3.6,6.3,46,0.00,,CLR,0.00,VWS V14.01,2013-03-02 11:07:00,
2013-03-02 05:13:00,9.3,-7.3,29.93,North,353,4.0,5.8,46,0.00,,CLR,0.00,VWS V14.01,2013-03-02 11:13:00,
2013-03-02 05:18:00,9.3,-7.3,29.93,North,6,5.8,5.8,46,0.00,,CLR,0.00,VWS V14.01,2013-03-02 11:18:00,
2013-03-02 05:23:00,9.3,-7.3,29.93,North,350,7.6,7.6,46,0.00,,CLR,0.00,VWS V14.01,2013-03-02 11:23:00,
2013-03-02 05:28:00,9.3,-7.3,29.93,North,353,4.9,5.8,46,0.00,,CLR,0.00,VWS V14.01,2013-03-02 11:28:00,
2013-03-02 05:34:00,9.5,-7.1,29.93,NNW,344,5.4,7.2,46,0.00,,CLR,0.00,VWS V14.01,2013-03-02 11:34:00,
2013-03-02 05:40:00,9.5,-7.1,29.93,NNW,335,7.6,7.6,46,0.00,,CLR,0.00,VWS V14.01,2013-03-02 11:40:00,
2013-03-02 05:46:00,9.5,-7.1,29.93,NNW,346,6.3,8.1,46,0.00,,CLR,0.00,VWS V14.01,2013-03-02 11:46:00,
2013-03-02 05:52:00,9.5,-7.1,29.93,North,0,5.8,8.3,46,0.00,,CLR,0.00,VWS V14.01,2013-03-02 11:52:00,
2013-03-02 05:58:00,9.5,-7.1,29.93,North,353,5.4,6.3,46,0.00,,CLR,0.00,VWS V14.01,2013-03-02 11:58:00,
2013-03-02 06:03:00,9.5,-7.1,29.93,NNW,342,5.4,7.6,46,0.00,,CLR,0.00,VWS V14.01,2013-03-02 12:03:00,
2013-03-02 06:08:00,9.3,-7.3,29.93,NNE,15,7.6,8.7,46,0.00,,CLR,0.00,VWS V14.01,2013-03-02 12:08:00,
2013-03-02 06:13:00,9.3,-7.3,29.93,North,357,8.7,8.7,46,0.00,,CLR,0.00,VWS V14.01,2013-03-02 12:13:00,
2013-03-02 06:19:00,9.3,-7.3,29.93,North,0,5.4,6.3,46,0.00,,CLR,0.00,VWS V14.01,2013-03-02 12:19:00,
2013-03-02 06:25:00,9.1,-7.4,29.93,North,2,5.8,8.1,46,0.00,,CLR,0.00,VWS V14.01,2013-03-02 12:25:00,
2013-03-02 06:30:00,9.1,-7.4,29.93,NNW,339,7.6,8.3,46,0.00,,CLR,0.00,VWS V14.01,2013-03-02 12:30:00,
2013-03-02 06:35:00,9.1,-7.4,29.93,North,353,5.8,8.1,46,0.00,,CLR,0.00,VWS V14.01,2013-03-02 12:35:00,
2013-03-02 06:40:00,9.0,-7.6,29.96,North,349,8.1,8.3,46,0.00,,CLR,0.00,VWS V14.01,2013-03-02 12:40:00,
2013-03-02 06:46:00,8.8,-7.8,29.96,North,353,5.4,7.6,46,0.00,,CLR,0.00,VWS V14.01,2013-03-02 12:46:00,
2013-03-02 06:51:00,8.8,-7.8,29.96,North,350,6.3,8.1,46,0.00,,CLR,0.00,VWS V14.01,2013-03-02 12:51:00,
2013-03-02 06:57:00,8.8,-7.8,29.96,NNW,339,5.8,8.1,46,0.00,,CLR,0.00,VWS V14.01,2013-03-02 12:57:00,
2013-03-02 07:03:00,8.8,-7.8,29.96,North,353,5.4,8.3,46,0.00,,CLR,0.00,VWS V14.01,2013-03-02 13:03:00,
2013-03-02 07:08:00,9.0,-7.6,29.96,North,353,6.7,8.1,46,0.00,,CLR,0.00,VWS V14.01,2013-03-02 13:08:00,
2013-03-02 07:14:00,9.1,-7.4,29.96,North,349,5.4,8.1,46,0.00,,CLR,0.00,VWS V14.01,2013-03-02 13:14:00,
2013-03-02 07:19:00,9.1,-7.4,29.96,North,353,6.7,7.6,46,0.00,,CLR,0.00,VWS V14.01,2013-03-02 13:19:00,
2013-03-02 07:25:00,9.3,-7.3,29.96,North,357,6.3,6.3,46,0.00,,CLR,0.00,VWS V14.01,2013-03-02 13:25:00,
2013-03-02 07:31:00,9.5,-7.1,29.96,NNE,13,7.6,7.6,46,0.00,,CLR,0.00,VWS V14.01,2013-03-02 13:31:00,
2013-03-02 07:36:00,9.7,-6.9,29.96,NNW,337,7.2,8.3,46,0.00,,CLR,0.00,VWS V14.01,2013-03-02 13:36:00,
2013-03-02 07:42:00,9.9,-6.8,29.96,North,8,5.8,6.3,46,0.00,,CLR,0.00,VWS V14.01,2013-03-02 13:42:00,
2013-03-02 07:47:00,10.2,-6.4,29.96,North,357,6.7,7.6,46,0.00,,CLR,0.00,VWS V14.01,2013-03-02 13:47:00,
2013-03-02 07:53:00,10.4,-6.3,29.96,North,6,7.6,8.3,46,0.00,,CLR,0.00,VWS V14.01,2013-03-02 13:53:00,
2013-03-02 07:59:00,10.8,-5.9,29.93,North,1,5.8,8.7,46,0.00,,CLR,0.00,VWS V14.01,2013-03-02 13:59:00,
2013-03-02 08:05:00,11.1,-5.6,29.93,NNE,12,6.3,7.6,46,0.00,,CLR,0.00,VWS V14.01,2013-03-02 14:05:00,
2013-03-02 08:11:00,11.7,-5.1,29.96,North,0,8.1,8.7,46,0.00,,CLR,0.00,VWS V14.01,2013-03-02 14:11:00,
2013-03-02 08:16:00,12.0,-4.8,29.96,North,7,8.1,8.1,46,0.00,,CLR,0.00,VWS V14.01,2013-03-02 14:16:00,
2013-03-02 08:21:00,12.2,-4.6,29.96,North,7,5.8,10.1,46,0.00,,CLR,0.00,VWS V14.01,2013-03-02 14:21:00,
2013-03-02 08:26:00,12.6,-4.3,29.96,North,357,6.3,7.6,46,0.00,,CLR,0.00,VWS V14.01,2013-03-02 14:26:00,
2013-03-02 08:31:00,12.7,-4.1,29.96,NNE,14,8.7,8.7,46,0.00,,CLR,0.00,VWS V14.01,2013-03-02 14:31:00,
2013-03-02 08:37:00,12.9,-4.0,29.96,North,6,8.1,8.7,46,0.00,,CLR,0.00,VWS V14.01,2013-03-02 14:37:00,
2013-03-02 08:42:00,13.3,-3.6,29.93,NNE,16,8.1,9.2,46,0.00,,CLR,0.00,VWS V14.01,2013-03-02 14:42:00,
2013-03-02 08:48:00,13.5,-3.5,29.93,NNE,16,8.3,8.3,46,0.00,,CLR,0.00,VWS V14.01,2013-03-02 14:48:00,
2013-03-02 08:54:00,13.6,-3.3,29.96,North,7,6.3,8.1,46,0.00,,CLR,0.00,VWS V14.01,2013-03-02 14:54:00,
2013-03-02 08:59:00,13.6,-3.3,29.96,NNE,22,10.5,10.5,46,0.00,,CLR,0.00,VWS V14.01,2013-03-02 14:59:00,
2013-03-02 09:04:00,14.2,-3.7,29.96,NNE,13,7.6,8.7,44,0.00,,BKN016,0.00,VWS V14.01,2013-03-02 15:04:00,
2013-03-02 09:09:00,14.5,-3.4,29.96,North,1,10.1,11.0,44,0.00,,BKN016,0.00,VWS V14.01,2013-03-02 15:09:00,
2013-03-02 09:14:00,14.9,-3.1,29.96,North,8,8.1,8.3,44,0.00,,BKN016,0.00,VWS V14.01,2013-03-02 15:14:00,
2013-03-02 09:20:00,15.4,-2.6,29.96,NNE,23,8.7,8.7,44,0.00,,BKN016,0.00,VWS V14.01,2013-03-02 15:20:00,
2013-03-02 09:26:00,16.3,-1.7,29.96,NNE,19,7.6,7.6,44,0.00,,BKN016,0.00,VWS V14.01,2013-03-02 15:26:00,
2013-03-02 09:31:00,16.7,-1.9,29.96,North,357,6.3,8.1,43,0.00,,BKN016,0.00,VWS V14.01,2013-03-02 15:31:00,
2013-03-02 09:36:00,16.7,-1.9,29.96,North,0,5.8,8.3,43,0.00,,BKN016,0.00,VWS V14.01,2013-03-02 15:36:00,
2013-03-02 09:41:00,17.1,-1.6,29.93,North,350,8.1,8.7,43,0.00,,BKN016,0.00,VWS V14.01,2013-03-02 15:41:00,
2013-03-02 09:46:00,17.1,-1.6,29.93,NNW,342,8.3,8.7,43,0.00,,BKN016,0.00,VWS V14.01,2013-03-02 15:46:00,
2013-03-02 09:51:00,16.9,-1.7,29.93,North,11,7.6,10.5,43,0.00,,BKN016,0.00,VWS V14.01,2013-03-02 15:51:00,
2013-03-02 09:57:00,16.9,-1.7,29.96,North,357,5.8,6.3,43,0.00,,BKN016,0.00,VWS V14.01,2013-03-02 15:57:00,
2013-03-02 10:02:00,17.4,-0.8,29.96,North,4,8.1,8.1,44,0.00,,OVC016,0.00,VWS V14.01,2013-03-02 16:02:00,
2013-03-02 10:08:00,17.8,-0.9,29.96,North,5,5.4,6.3,43,0.00,,OVC016,0.00,VWS V14.01,2013-03-02 16:08:00,
2013-03-02 10:13:00,18.1,-0.6,29.96,North,0,7.6,8.7,43,0.00,,OVC016,0.00,VWS V14.01,2013-03-02 16:13:00,
2013-03-02 10:18:00,18.3,-0.4,29.96,NNE,22,7.6,8.7,43,0.00,,OVC016,0.00,VWS V14.01,2013-03-02 16:18:00,
2013-03-02 10:23:00,18.5,-0.3,29.96,NNE,12,11.0,12.8,43,0.00,,OVC016,0.00,VWS V14.01,2013-03-02 16:23:00,
2013-03-02 10:28:00,18.5,-0.3,29.93,NNE,17,7.6,11.9,43,0.00,,OVC016,0.00,VWS V14.01,2013-03-02 16:28:00,
2013-03-02 10:33:00,19.0,0.2,29.93,NNE,16,11.4,11.4,43,0.00,,OVC016,0.00,VWS V14.01,2013-03-02 16:33:00,
2013-03-02 10:38:00,19.2,0.4,29.96,North,357,8.3,10.1,43,0.00,,OVC016,0.00,VWS V14.01,2013-03-02 16:38:00,
2013-03-02 10:43:00,19.2,0.4,29.96,NNE,17,11.0,11.0,43,0.00,,OVC016,0.00,VWS V14.01,2013-03-02 16:43:00,
2013-03-02 10:48:00,19.4,0.6,29.96,North,4,8.7,10.1,43,0.00,,OVC016,0.00,VWS V14.01,2013-03-02 16:48:00,
2013-03-02 10:53:00,19.4,0.6,29.96,North,357,8.7,8.7,43,0.00,,OVC016,0.00,VWS V14.01,2013-03-02 16:53:00,
2013-03-02 10:58:00,19.6,0.2,29.96,North,353,12.3,12.3,42,0.00,,OVC016,0.00,VWS V14.01,2013-03-02 16:58:00,
2013-03-02 11:04:00,19.2,0.4,29.96,NNE,16,8.3,8.3,43,0.00,,OVC016,0.00,VWS V14.01,2013-03-02 17:04:00,
2013-03-02 11:09:00,19.2,0.4,29.93,North,3,11.0,11.0,43,0.00,,OVC016,0.00,VWS V14.01,2013-03-02 17:09:00,
2013-03-02 11:15:00,19.4,0.6,29.93,North,357,8.7,8.7,43,0.00,,OVC016,0.00,VWS V14.01,2013-03-02 17:15:00,
2013-03-02 11:21:00,19.9,0.6,29.93,North,4,7.2,11.0,42,0.00,,OVC016,0.00,VWS V14.01,2013-03-02 17:21:00,
2013-03-02 11:26:00,19.9,0.6,29.93,NNE,22,10.1,10.1,42,0.00,,OVC016,0.00,VWS V14.01,2013-03-02 17:26:00,
2013-03-02 11:32:00,20.1,0.2,29.93,NNE,19,8.1,10.1,41,0.00,,OVC016,0.00,VWS V14.01,2013-03-02 17:32:00,
2013-03-02 11:38:00,19.8,-0.6,29.93,NNE,17,8.3,10.1,40,0.00,,OVC016,0.00,VWS V14.01,2013-03-02 17:38:00,
2013-03-02 11:43:00,19.8,-0.1,29.93,North,357,12.3,12.3,41,0.00,,OVC016,0.00,VWS V14.01,2013-03-02 17:43:00,
2013-03-02 11:48:00,19.9,0.0,29.93,NNE,22,7.6,10.1,41,0.00,,OVC016,0.00,VWS V14.01,2013-03-02 17:48:00,
2013-03-02 11:53:00,20.7,1.2,29.93,North,357,5.4,8.1,42,0.00,,OVC016,0.00,VWS V14.01,2013-03-02 17:53:00,
2013-03-02 11:59:00,20.7,0.2,29.93,NNE,26,8.1,8.3,40,0.00,,OVC016,0.00,VWS V14.01,2013-03-02 17:59:00,
2013-03-02 12:04:00,20.8,0.3,29.93,NNW,336,8.7,8.7,40,0.00,,OVC016,0.00,VWS V14.01,2013-03-02 18:04:00,
2013-03-02 12:09:00,20.7,0.7,29.93,NNE,17,8.1,8.1,41,0.00,,OVC016,0.00,VWS V14.01,2013-03-02 18:09:00,
2013-03-02 12:14:00,20.7,-0.4,29.93,North,2,5.4,8.1,39,0.00,,OVC016,0.00,VWS V14.01,2013-03-02 18:14:00,
2013-03-02 12:19:00,20.3,-0.7,29.93,NNE,20,8.7,8.7,39,0.00,,OVC016,0.00,VWS V14.01,2013-03-02 18:19:00,
2013-03-02 12:25:00,20.8,0.3,29.93,North,357,6.3,8.3,40,0.00,,OVC016,0.00,VWS V14.01,2013-03-02 18:25:00,
2013-03-02 12:31:00,21.0,0.0,29.93,North,357,6.3,7.6,39,0.00,,OVC016,0.00,VWS V14.01,2013-03-02 18:31:00,
2013-03-02 12:36:00,21.0,-0.6,29.93,North,357,8.1,8.1,38,0.00,,OVC016,0.00,VWS V14.01,2013-03-02 18:36:00,
2013-03-02 12:42:00,20.8,-0.8,29.93,North,8,5.4,8.3,38,0.00,,OVC016,0.00,VWS V14.01,2013-03-02 18:42:00,
2013-03-02 12:47:00,21.6,-0.1,29.93,North,357,6.3,6.3,38,0.00,,OVC016,0.00,VWS V14.01,2013-03-02 18:47:00,
2013-03-02 12:52:00,21.6,-0.1,29.93,North,9,5.4,8.1,38,0.00,,OVC016,0.00,VWS V14.01,2013-03-02 18:52:00,
2013-03-02 15:25:00,27.1,0.5,29.91,NNE,19,5.4,5.4,31,0.00,,OVC016,0.00,VWS V14.01,2013-03-02 21:25:00,
2013-03-02 15:35:00,26.8,0.2,29.91,North,7,2.7,2.7,31,0.00,,OVC016,0.00,VWS V14.01,2013-03-02 21:35:00,
2013-03-02 15:41:00,27.5,0.8,29.91,NNE,31,2.7,3.1,31,0.00,,OVC016,0.00,VWS V14.01,2013-03-02 21:41:00,
2013-03-02 15:46:00,28.8,2.0,29.91,NE,40,0.0,2.2,31,0.00,,OVC016,0.00,VWS V14.01,2013-03-02 21:46:00,
2013-03-02 15:52:00,29.3,2.4,29.91,NNE,21,2.2,2.2,31,0.00,,OVC016,0.00,VWS V14.01,2013-03-02 21:52:00,
2013-03-02 15:58:00,29.5,2.6,29.91,NNE,15,3.6,5.8,31,0.00,,OVC016,0.00,VWS V14.01,2013-03-02 21:58:00,
2013-03-02 16:05:00,29.8,2.9,29.91,NE,36,0.0,0.0,31,0.00,,OVC016,0.00,VWS V14.01,2013-03-02 22:05:00,
2013-03-02 16:10:00,30.4,2.7,29.91,NE,40,0.0,0.0,30,0.00,,OVC016,0.00,VWS V14.01,2013-03-02 22:10:00,
2013-03-02 16:15:00,31.1,3.3,29.91,NE,47,0.0,0.0,30,0.00,,OVC016,0.00,VWS V14.01,2013-03-02 22:15:00,
2013-03-02 16:21:00,31.3,3.5,29.91,NE,48,0.0,0.0,30,0.00,,OVC016,0.00,VWS V14.01,2013-03-02 22:21:00,
2013-03-02 16:26:00,31.1,3.3,29.91,NE,43,0.0,0.0,30,0.00,,OVC016,0.00,VWS V14.01,2013-03-02 22:26:00,
2013-03-02 16:32:00,30.7,3.0,29.91,NE,38,0.0,0.0,30,0.00,,OVC016,0.00,VWS V14.01,2013-03-02 22:32:00,
2013-03-02 16:37:00,30.0,2.3,29.91,NE,38,0.0,0.0,30,0.00,,OVC016,0.00,VWS V14.01,2013-03-02 22:37:00,
2013-03-02 16:43:00,30.4,2.7,29.91,NE,39,0.0,0.0,30,0.00,,OVC016,0.00,VWS V14.01,2013-03-02 22:43:00,
2013-03-02 16:48:00,30.7,3.0,29.91,NE,39,0.0,0.0,30,0.00,,OVC016,0.00,VWS V14.01,2013-03-02 22:48:00,
2013-03-02 16:53:00,31.3,3.5,29.91,NE,39,0.0,0.0,30,0.00,,OVC016,0.00,VWS V14.01,2013-03-02 22:53:00,
2013-03-02 16:58:00,30.9,1.7,29.91,NE,39,0.0,0.0,28,0.00,,OVC016,0.00,VWS V14.01,2013-03-02 22:58:00,
2013-03-02 17:03:00,29.5,0.4,29.91,NE,39,0.0,0.0,28,0.00,,CLR,0.00,VWS V14.01,2013-03-02 23:03:00,
2013-03-02 17:08:00,27.0,-1.8,29.91,NE,39,0.0,0.0,28,0.00,,CLR,0.00,VWS V14.01,2013-03-02 23:08:00,
2013-03-02 17:14:00,25.5,-2.3,29.91,NE,39,0.0,0.0,29,0.00,,CLR,0.00,VWS V14.01,2013-03-02 23:14:00,
2013-03-02 17:19:00,24.6,-3.1,29.91,NE,39,0.0,0.0,29,0.00,,CLR,0.00,VWS V14.01,2013-03-02 23:19:00,
2013-03-02 17:25:00,23.9,-3.7,29.91,NE,39,0.0,0.0,29,0.00,,CLR,0.00,VWS V14.01,2013-03-02 23:25:00,
2013-03-02 17:30:00,23.5,-4.0,29.91,NE,39,0.0,0.0,29,0.00,,CLR,0.00,VWS V14.01,2013-03-02 23:30:00,
2013-03-02 17:36:00,23.0,-3.8,29.91,NE,39,0.0,0.0,30,0.00,,CLR,0.00,VWS V14.01,2013-03-02 23:36:00,
2013-03-02 17:41:00,22.5,-4.3,29.91,NE,39,0.0,0.0,30,0.00,,CLR,0.00,VWS V14.01,2013-03-02 23:41:00,
2013-03-02 17:46:00,22.1,-4.6,29.91,NE,39,0.0,0.0,30,0.00,,CLR,0.00,VWS V14.01,2013-03-02 23:46:00,
2013-03-02 17:51:00,21.9,-4.8,29.91,NE,39,0.0,0.0,30,0.00,,CLR,0.00,VWS V14.01,2013-03-02 23:51:00,
2013-03-02 17:57:00,21.0,-5.5,29.91,NE,39,0.0,0.0,30,0.00,,CLR,0.00,VWS V14.01,2013-03-02 23:57:00,
2013-03-02 18:03:00,20.1,-6.3,29.91,NE,39,0.0,0.0,30,0.00,,CLR,0.00,VWS V14.01,2013-03-03 00:03:00,
2013-03-02 18:12:00,19.0,-7.3,29.91,NE,39,0.0,0.0,30,0.00,,CLR,0.00,VWS V14.01,2013-03-03 00:12:00,
2013-03-02 18:17:00,18.5,-7.8,29.91,NE,39,0.0,0.0,30,0.00,,CLR,0.00,VWS V14.01,2013-03-03 00:17:00,
2013-03-02 18:22:00,17.6,-7.9,29.91,NE,39,0.0,0.0,31,0.00,,CLR,0.00,VWS V14.01,2013-03-03 00:22:00,
2013-03-02 18:27:00,17.1,-8.4,29.91,NE,39,0.0,0.0,31,0.00,,CLR,0.00,VWS V14.01,2013-03-03 00:27:00,
2013-03-02 18:32:00,16.7,-8.7,29.91,NE,39,0.0,0.0,31,0.00,,CLR,0.00,VWS V14.01,2013-03-03 00:32:00,
2013-03-02 18:38:00,16.0,-7.4,29.91,NE,39,0.0,0.0,34,0.00,,CLR,0.00,VWS V14.01,2013-03-03 00:38:00,
2013-03-02 18:43:00,15.4,-7.9,29.91,NE,39,0.0,0.0,34,0.00,,CLR,0.00,VWS V14.01,2013-03-03 00:43:00,
2013-03-02 18:49:00,14.9,-7.8,29.91,NE,39,0.0,0.0,35,0.00,,CLR,0.00,VWS V14.01,2013-03-03 00:49:00,
2013-03-02 18:55:00,14.0,-8.6,29.91,NE,39,0.0,0.0,35,0.00,,CLR,0.00,VWS V14.01,2013-03-03 00:55:00,
2013-03-02 19:00:00,13.6,-8.9,29.91,NE,39,0.0,0.0,35,0.00,,CLR,0.00,VWS V14.01,2013-03-03 01:00:00,
2013-03-02 19:06:00,13.3,-9.2,29.91,NE,39,0.0,0.0,35,0.00,,CLR,0.00,VWS V14.01,2013-03-03 01:06:00,
2013-03-02 19:11:00,12.9,-9.6,29.91,NE,39,0.0,0.0,35,0.00,,CLR,0.00,VWS V14.01,2013-03-03 01:11:00,
2013-03-02 19:16:00,12.7,-9.7,29.91,NE,39,0.0,0.0,35,0.00,,CLR,0.00,VWS V14.01,2013-03-03 01:16:00,
2013-03-02 19:21:00,12.6,-9.9,29.91,NE,39,0.0,0.0,35,0.00,,CLR,0.00,VWS V14.01,2013-03-03 01:21:00,
2013-03-02 19:26:00,12.6,-9.9,29.91,NE,39,0.0,0.0,35,0.00,,CLR,0.00,VWS V14.01,2013-03-03 01:26:00,
2013-03-02 19:31:00,12.2,-10.2,29.91,NE,39,0.0,0.0,35,0.00,,CLR,0.00,VWS V14.01,2013-03-03 01:31:00,
2013-03-02 19:36:00,12.0,-10.4,29.91,NE,39,0.0,0.0,35,0.00,,CLR,0.00,VWS V14.01,2013-03-03 01:36:00,
2013-03-02 19:41:00,11.8,-10.5,29.91,NE,39,0.0,0.0,35,0.00,,CLR,0.00,VWS V14.01,2013-03-03 01:41:00,
2013-03-02 19:47:00,11.7,-10.7,29.91,NE,39,0.0,0.0,35,0.00,,CLR,0.00,VWS V14.01,2013-03-03 01:47:00,
2013-03-02 19:52:00,11.3,-11.0,29.91,NE,39,0.0,0.0,35,0.00,,CLR,0.00,VWS V14.01,2013-03-03 01:52:00,
2013-03-02 19:58:00,11.1,-11.2,29.91,NE,39,0.0,0.0,35,0.00,,CLR,0.00,VWS V14.01,2013-03-03 01:58:00,
2013-03-02 20:03:00,10.9,-11.3,29.91,NE,39,0.0,0.0,35,0.00,,CLR,0.00,VWS V14.01,2013-03-03 02:03:00,
2013-03-02 20:09:00,10.4,-11.8,29.91,NE,39,0.0,0.0,35,0.00,,CLR,0.00,VWS V14.01,2013-03-03 02:09:00,
2013-03-02 20:14:00,9.7,-12.5,29.91,NE,39,0.0,0.0,35,0.00,,CLR,0.00,VWS V14.01,2013-03-03 02:14:00,
2013-03-02 20:20:00,9.5,-12.6,29.91,NE,39,0.0,0.0,35,0.00,,CLR,0.00,VWS V14.01,2013-03-03 02:20:00,
2013-03-02 20:25:00,9.3,-12.8,29.91,NE,39,0.0,0.0,35,0.00,,CLR,0.00,VWS V14.01,2013-03-03 02:25:00,
2013-03-02 20:30:00,9.1,-12.9,29.91,NE,39,0.0,0.0,35,0.00,,CLR,0.00,VWS V14.01,2013-03-03 02:30:00,
2013-03-02 20:35:00,8.8,-13.3,29.91,NE,39,0.0,0.0,35,0.00,,CLR,0.00,VWS V14.01,2013-03-03 02:35:00,
2013-03-02 20:41:00,8.6,-13.4,29.91,NE,39,0.0,0.0,35,0.00,,CLR,0.00,VWS V14.01,2013-03-03 02:41:00,
2013-03-02 20:47:00,8.6,-13.4,29.91,NE,39,0.0,0.0,35,0.00,,CLR,0.00,VWS V14.01,2013-03-03 02:47:00,
2013-03-02 20:52:00,8.8,-13.3,29.91,NE,39,0.0,0.0,35,0.00,,CLR,0.00,VWS V14.01,2013-03-03 02:52:00,
2013-03-02 20:57:00,9.1,-12.9,29.88,NE,39,0.0,0.0,35,0.00,,CLR,0.00,VWS V14.01,2013-03-03 02:57:00,
2013-03-02 21:02:00,9.3,-12.8,29.88,NE,39,0.0,0.0,35,0.00,,CLR,0.00,VWS V14.01,2013-03-03 03:02:00,
2013-03-02 21:07:00,9.5,-12.6,29.88,NE,39,0.0,0.0,35,0.00,,CLR,0.00,VWS V14.01,2013-03-03 03:07:00,
2013-03-02 21:12:00,9.5,-12.6,29.88,NE,39,0.0,0.0,35,0.00,,CLR,0.00,VWS V14.01,2013-03-03 03:12:00,
2013-03-02 21:18:00,9.3,-12.8,29.88,NE,39,0.0,0.0,35,0.00,,CLR,0.00,VWS V14.01,2013-03-03 03:18:00,
2013-03-02 21:23:00,9.1,-12.9,29.88,NE,39,0.0,0.0,35,0.00,,CLR,0.00,VWS V14.01,2013-03-03 03:23:00,
2013-03-02 21:28:00,9.0,-13.1,29.88,NE,39,0.0,0.0,35,0.00,,CLR,0.00,VWS V14.01,2013-03-03 03:28:00,
2013-03-02 21:33:00,8.8,-13.3,29.88,NE,39,0.0,0.0,35,0.00,,CLR,0.00,VWS V14.01,2013-03-03 03:33:00,
2013-03-02 21:39:00,8.8,-13.3,29.88,NE,39,0.0,0.0,35,0.00,,CLR,0.00,VWS V14.01,2013-03-03 03:39:00,
2013-03-02 21:44:00,9.1,-12.9,29.88,NE,39,0.0,0.0,35,0.00,,CLR,0.00,VWS V14.01,2013-03-03 03:44:00,
2013-03-02 21:49:00,9.7,-12.5,29.88,NE,39,0.0,0.0,35,0.00,,CLR,0.00,VWS V14.01,2013-03-03 03:49:00,
2013-03-02 21:54:00,10.0,-12.1,29.88,NE,39,0.0,0.0,35,0.00,,CLR,0.00,VWS V14.01,2013-03-03 03:54:00,
2013-03-02 21:59:00,10.6,-11.7,29.88,NE,39,0.0,0.0,35,0.00,,CLR,0.00,VWS V14.01,2013-03-03 03:59:00,
2013-03-02 22:05:00,11.1,-11.2,29.88,NE,39,0.0,0.0,35,0.00,,CLR,0.00,VWS V14.01,2013-03-03 04:05:00,
2013-03-02 22:11:00,11.7,-10.7,29.88,NW,321,0.0,0.0,35,0.00,,CLR,0.00,VWS V14.01,2013-03-03 04:11:00,
2013-03-02 22:16:00,12.0,-10.4,29.88,NW,321,0.0,0.0,35,0.00,,CLR,0.00,VWS V14.01,2013-03-03 04:16:00,
2013-03-02 22:22:00,12.0,-10.4,29.88,NW,321,0.0,0.0,35,0.00,,CLR,0.00,VWS V14.01,2013-03-03 04:22:00,
2013-03-02 22:28:00,12.0,-10.4,29.88,NW,316,0.0,0.0,35,0.00,,CLR,0.00,VWS V14.01,2013-03-03 04:28:00,
2013-03-02 22:33:00,12.0,-10.4,29.88,NW,316,0.0,0.0,35,0.00,,CLR,0.00,VWS V14.01,2013-03-03 04:33:00,
2013-03-02 22:38:00,12.2,-10.2,29.88,NW,316,0.0,0.0,35,0.00,,CLR,0.00,VWS V14.01,2013-03-03 04:38:00,
2013-03-02 22:44:00,12.6,-9.9,29.88,NW,312,0.0,0.0,35,0.00,,CLR,0.00,VWS V14.01,2013-03-03 04:44:00,
2013-03-02 22:50:00,12.9,-9.6,29.88,West,265,0.0,0.0,35,0.00,,CLR,0.00,VWS V14.01,2013-03-03 04:50:00,
2013-03-02 22:55:00,12.9,-9.6,29.88,West,265,0.0,0.0,35,0.00,,CLR,0.00,VWS V14.01,2013-03-03 04:55:00,
2013-03-02 23:00:00,12.9,-9.6,29.88,West,264,0.0,0.0,35,0.00,,CLR,0.00,VWS V14.01,2013-03-03 05:00:00,
2013-03-02 23:01:00,12.7,-9.7,29.88,West,263,0.0,0.0,35,0.00,,CLR,0.00,VWS V14.01,2013-03-03 05:01:00,
2013-03-02 23:02:00,12.7,-9.7,29.88,West,263,0.0,0.0,35,0.00,,CLR,0.00,VWS V14.01,2013-03-03 05:02:00,
2013-03-02 23:07:00,12.7,-9.7,29.88,WSW,258,0.0,0.0,35,0.00,,CLR,0.00,VWS V14.01,2013-03-03 05:07:00,
2013-03-02 23:08:00,12.7,-9.7,29.88,WSW,258,0.0,0.0,35,0.00,,CLR,0.00,VWS V14.01,2013-03-03 05:08:00,
2013-03-02 23:14:00,12.6,-9.9,29.85,WSW,258,0.0,0.0,35,0.00,,CLR,0.00,VWS V14.01,2013-03-03 05:14:00,
2013-03-02 23:19:00,12.0,-10.4,29.85,WSW,258,0.0,0.0,35,0.00,,CLR,0.00,VWS V14.01,2013-03-03 05:19:00,
2013-03-02 23:25:00,11.3,-11.0,29.85,WSW,258,0.0,0.0,35,0.00,,CLR,0.00,VWS V14.01,2013-03-03 05:25:00,
2013-03-02 23:31:00,10.2,-12.0,29.85,WSW,258,0.0,0.0,35,0.00,,CLR,0.00,VWS V14.01,2013-03-03 05:31:00,
2013-03-02 23:36:00,9.3,-12.8,29.85,WSW,258,0.0,0.0,35,0.00,,CLR,0.00,VWS V14.01,2013-03-03 05:36:00,
2013-03-02 23:42:00,9.1,-12.9,29.85,WSW,258,0.0,0.0,35,0.00,,CLR,0.00,VWS V14.01,2013-03-03 05:42:00,
2013-03-02 23:47:00,9.5,-12.6,29.85,WSW,258,0.0,0.0,35,0.00,,CLR,0.00,VWS V14.01,2013-03-03 05:47:00,
2013-03-02 23:52:00,9.7,-12.5,29.85,WSW,258,0.0,0.0,35,0.00,,CLR,0.00,VWS V14.01,2013-03-03 05:52:00,
2013-03-02 23:57:00,10.0,-12.1,29.85,WSW,258,0.0,0.0,35,0.00,,CLR,0.00,VWS V14.01,2013-03-03 05:57:00,